Home > Weather > Oulu > Past weeks

Flag for Finland Past Weather in Oulu, Finland — Yesterday and Last 2 Weeks

Now
50 °F

Clear.


Feels Like: 49 °F
Forecast: 52 / 72 °F
Wind: 3 mph from Northwest

Location: Oulu Airport

Current Time: May 30, 2016 at 2:04:13 AM

Latest Report: May 30, 2016 at 1:20 AM


Visibility: 10 mi

Pressure: 30.27 "Hg

Humidity: 94%

Dew Point: 48 °F

Location of OuluLocation

Past Weather in Oulu — Graph

°F

Oulu Temperature Yesterday

Maximum temperature yesterday: 70 °F (at 11:50 AM)
Minimum temperature yesterday: 45 °F (at 1:50 AM)
Average temperature yesterday: 60 °F

High & Low Weather Summary for the Past Weeks

 TemperatureHumidityPressure
High73 °F (May 23, 4:20 PM)100% (May 15, 6:20 AM)30.39 "Hg (May 15, 6:20 AM)
Low39 °F (May 18, 3:20 AM)28% (May 27, 3:20 PM)29.53 "Hg (May 17, 8:50 AM)
Average53 °F72%29.96 "Hg
* Reported May 15 1:20 AM — May 30 1:20 AM, Oulu, Weather by CustomWeather, © 2016

Note: Actual official high and low records may vary slightly from our data, if they occured in-between our weather recording intervals... More about our weather records

Advertising

Oulu Weather History for the Previous 24 Hours

Scroll right to see more
 ConditionsComfort  
Time TempWeatherWind HumidityBarometerVisibility
1:20 AM
Mon, May 30
50 °FClear.3 mph94%30.27 "Hg10 mi
12:20 AM54 °FSunny.6 mph88%30.27 "Hg10 mi
11:50 PM
Sun, May 29
54 °FSunny.7 mph88%30.27 "Hg10 mi
11:20 PM55 °FSunny.9 mph82%30.24 "Hg10 mi
10:50 PM57 °FSunny.8 mph77%30.24 "Hg10 mi
10:20 PM59 °FSunny.8 mph72%30.24 "Hg10 mi
9:50 PM59 °FSunny.10 mph72%30.24 "Hg10 mi
9:20 PM61 °FSunny.13 mph63%30.24 "Hg10 mi
8:50 PM63 °FSunny.13 mph64%30.24 "Hg10 mi
8:20 PM64 °FSunny.13 mph56%30.24 "Hg10 mi
7:50 PM66 °FSunny.14 mph52%30.24 "Hg10 mi
7:20 PM66 °FSunny.12 mph52%30.24 "Hg10 mi
6:50 PM68 °FSunny.13 mph43%30.24 "Hg10 mi
6:20 PM68 °FPassing clouds.10 mph43%30.24 "HgN/A
5:50 PM66 °FSunny.13 mph49%30.27 "Hg10 mi
5:20 PM68 °FSunny.10 mph49%30.27 "Hg10 mi
4:50 PM68 °FSunny.13 mph46%30.27 "Hg10 mi
4:20 PM66 °FSunny.13 mph46%30.27 "Hg10 mi
3:50 PM66 °FSunny.12 mph46%30.27 "Hg10 mi
3:20 PM66 °FPassing clouds.12 mph49%30.27 "HgN/A
2:50 PM66 °FSunny.12 mph49%30.27 "Hg10 mi
2:20 PM68 °FSunny.10 mph46%30.27 "Hg10 mi
1:50 PM68 °FPassing clouds.8 mph46%30.27 "HgN/A
1:20 PM70 °FPassing clouds.7 mph40%30.30 "HgN/A
12:50 PM70 °FPassing clouds.8 mph40%30.30 "HgN/A
12:20 PM68 °FSunny.3 mph46%30.30 "Hg10 mi
11:50 AM70 °FPassing clouds.6 mph43%30.30 "HgN/A
11:20 AM68 °FSunny.2 mph43%30.30 "Hg10 mi
10:50 AM66 °FSunny.2 mph46%30.30 "Hg10 mi
10:20 AM66 °FSunny.2 mph49%30.30 "Hg10 mi
9:50 AM66 °FSunny.2 mph49%30.30 "Hg10 mi
9:20 AM63 °FSunny.2 mph52%30.30 "Hg10 mi
8:50 AM63 °FSunny.2 mph59%30.30 "Hg10 mi
8:20 AM61 °FPassing clouds.3 mph59%30.30 "HgN/A
7:50 AM59 °FSunny.2 mph63%30.30 "Hg10 mi
7:20 AM57 °FSunny.1 mph72%30.33 "Hg10 mi
6:50 AM55 °FPassing clouds.5 mph77%30.33 "HgN/A
6:20 AM54 °FSunny.2 mph88%30.33 "Hg10 mi
5:50 AM54 °FSunny.2 mph94%30.33 "Hg10 mi
5:20 AM50 °FSunny.No wind88%30.33 "Hg10 mi
4:50 AM46 °FSunny.1 mph93%30.33 "Hg10 mi
4:20 AM46 °FSunny.2 mph93%30.33 "Hg10 mi
3:50 AM46 °FClear.2 mph93%30.33 "Hg10 mi
3:20 AM46 °FClear.2 mph100%30.33 "Hg10 mi
2:50 AM46 °FClear.2 mph93%30.33 "Hg10 mi
2:20 AM48 °FPassing clouds.3 mph100%30.33 "HgN/A
Weather by CustomWeather, © 2016

See weather overviewHow to use our weather pages